Notices

What's New in latest Release from April 7th, 2021:

- Updated Glossary, including Speed of Maximum Gust, and Total Hourly Precipitation

- Updated national and regional climate services offices contacts and prices information

- Addition of station inventory lists for 1981-2010, 1971-2000, and 1961-1990 Normals.

If you haven't already, please take our survey and provide feedback about our website: https://eccc.sondage-survey.ca/f/LanguageSelection.aspx?s=442ca660-fcf1-47c0-95a9-59707d6fd709

Hourly Data Report for March 13, 2003

TORONTO CITY
ONTARIO

43°40'00.000" N
79°24'00.000" W
112.50 m
6158355
71508
XTO

Download Data

Hourly Data (March 2003)
Hourly Data Report for March 13, 2003
TIME
LST
Temp Definition
°C
Dew Point Definition
°C
Rel Hum Definition
%
Precip. Amount Definition
mm

Wind Dir Definition
10's deg

Wind Spd Definition
km/h
Visibility Definition
km
Stn Press Definition
kPa
Hmdx Definition


Wind Chill Definition


Weather Definition


00:00 -5.4 -11.2 64   LegendMM LegendMM LegendMM 100.74     LegendNANA
01:00 -5.5 -13.0 55   LegendMM LegendMM LegendMM 100.77     LegendNANA
02:00 -5.8 -12.8 58   LegendMM LegendMM LegendMM 100.81     LegendNANA
03:00 -6.1 -12.1 62   LegendMM LegendMM LegendMM 100.75     LegendNANA
04:00 -6.4 -12.0 64   LegendMM LegendMM LegendMM 100.78     LegendNANA
05:00 -6.1 -12.3 61   LegendMM LegendMM LegendMM 100.82     LegendNANA
06:00 -5.6 -11.0 66   LegendMM LegendMM LegendMM 100.81     LegendNANA
07:00 -5.3 -10.7 66   LegendMM LegendMM LegendMM 100.89     LegendNANA
08:00 -5.8 -11.6 64   LegendMM LegendMM LegendMM 100.93     LegendNANA
09:00 -5.9 -11.5 65   LegendMM LegendMM LegendMM 100.88     LegendNANA
10:00 -5.1 -10.5 66   LegendMM LegendMM LegendMM 100.92     LegendNANA
11:00 -5.1 -11.7 60   LegendMM LegendMM LegendMM 100.95     LegendNANA
12:00 -3.9 -11.9 54   LegendMM LegendMM LegendMM 100.97     LegendNANA
13:00 -3.4 -12.7 49   LegendMM LegendMM LegendMM 100.89     LegendNANA
14:00 -1.3 -12.4 43   LegendMM LegendMM LegendMM 100.81     LegendNANA
15:00 -2.0 -13.3 42   LegendMM LegendMM LegendMM 100.81     LegendNANA
16:00 -2.0 -12.2 46   LegendMM LegendMM LegendMM 100.87     LegendNANA
17:00 -2.1 -13.1 43   LegendMM LegendMM LegendMM 100.92     LegendNANA
18:00 -2.7 -14.8 39   LegendMM LegendMM LegendMM 101.05     LegendNANA
19:00 -2.9 -14.1 42   LegendMM LegendMM LegendMM 101.15     LegendNANA
20:00 -3.7 -12.9 49   LegendMM LegendMM LegendMM 101.25     LegendNANA
21:00 -4.6 -13.5 50   LegendMM LegendMM LegendMM 101.28     LegendNANA
22:00 -5.4 -13.8 52   LegendMM LegendMM LegendMM 101.29     LegendNANA
23:00 -5.7 -14.1 52   LegendMM LegendMM LegendMM 101.27     LegendNANA

Notes on Data Quality.

Legend

  • E = Estimated
  • M = Missing
  • NA = Not Available*
  • [empty] = Indicates an unobserved value
Date modified: